[[{"header":{"parameterUnit":"m.s-1","parameterCategory":1,"la1":30.2991,"la2":30.254,"lo1":-89.0895,"lo2":-89.0444,"dy":0.0017,"dx":0.0017,"nx":28,"ny":28,"refTime":"2025-03-09T21:00:00:Z","depth":0,"parameterNumber":2,"parameterNumberName":"U-component_of_WINDS"},"data":[0,0,0,0,0,0,0,0,0,0,0,0,0,0,0,0,0,0,0,0,0,0,0,0,0,0,0,0,0,0,0,0,0,0,0,0,0,0,0,0,0,0,0,0,0,0,0,0,0,0,0,0,0,0,0,0,0,0,2.4833,2.4833,0,2.4869,2.4869,2.487,2.4852,2.4851,2.485,2.4849,2.4887,2.4889,2.4891,0,0,0,0,0,0,0,0,0,0,0,0,0,2.4754,2.4755,2.4833,2.4833,2.4834,2.4869,2.4869,2.487,2.4852,2.4851,2.485,2.4849,2.4886,2.4889,2.4891,0,0,0,0,0,0,0,0,0,0,0,0,0,2.4789,2.4756,2.4833,2.4829,2.4829,2.4869,2.4869,2.487,2.4852,2.4851,2.485,2.4848,2.4886,2.4888,2.4891,2.4936,0,0,2.49,2.4901,0,0,0,0,0,0,0,0,2.4787,2.4792,2.4829,2.483,2.483,2.4854,2.4855,2.4892,2.4853,2.4844,2.4849,2.4848,2.4877,2.4881,2.4891,2.4938,2.494,2.49,2.4902,2.4903,2.4904,0,0,0,0,0,0,0,2.4784,2.479,2.4847,2.483,2.483,2.4827,2.4831,2.4862,2.4868,2.4844,2.4843,2.4848,2.4877,2.4888,2.4891,2.494,2.49,2.4902,2.4904,2.4905,2.5032,2.5033,0,0,0,0,0,0,2.4782,2.4788,2.4846,2.4848,2.4804,2.483,2.4834,2.4848,2.4868,2.4869,2.4849,2.4847,2.4884,2.4888,2.4893,2.495,2.4903,2.4906,2.4907,2.503,2.5032,2.5034,0,0,0,0,0,0,2.478,2.4787,2.4845,2.4818,2.4825,2.4833,2.4849,2.4849,2.486,2.4871,2.4872,2.4858,2.4883,2.4889,2.4927,2.4951,2.4907,2.4909,2.5028,2.5031,2.5033,2.5063,0,0,0,0,0,0,2.4778,2.4786,2.4802,2.4818,2.4826,2.4877,2.485,2.4851,2.4865,2.4862,2.488,2.4882,2.4882,2.4923,2.4929,2.4954,2.4912,2.5026,2.5029,2.5032,2.5059,2.5066,2.5071,0,0,0,0,0,2.4775,2.4809,2.4803,2.481,2.4847,2.4878,2.4883,2.4882,2.4867,2.4884,2.4892,2.4881,2.4947,2.4927,2.4934,2.496,2.5024,2.5028,2.5032,2.5057,2.5065,2.5071,0,0,0,0,0,0,2.4795,2.4811,2.4805,2.4844,2.486,2.4875,2.4896,2.489,2.491,2.4907,2.4906,2.4911,2.4951,2.4959,2.4936,2.5007,2.4984,2.4989,2.5,2.5007,2.5013,2.5011,2.4914,0,0,0,0,0,2.4804,2.4827,2.484,2.4874,2.4882,2.4888,2.4902,2.49,2.4917,2.4923,2.4933,2.4951,2.4976,2.4992,2.5015,2.5061,2.5066,2.5083,2.5088,2.5093,2.5098,2.5127,2.5135,2.5046,2.5046,2.5046,0,0,2.4823,2.4834,2.4849,2.4878,2.489,2.4917,2.4894,2.4921,2.4941,2.4928,2.4965,2.4973,2.4992,2.5036,2.5055,2.5044,2.5124,2.5098,2.5102,2.5104,2.5132,2.514,2.5147,2.5049,2.5048,2.5048,0,0,2.487,2.488,2.4911,2.4925,2.4944,2.4948,2.4956,2.4972,2.4978,2.5015,2.5007,2.5031,2.5073,2.5088,2.5101,2.516,2.5152,2.5167,2.5198,2.5226,2.5233,2.5239,2.5263,2.5271,2.5172,2.5172,2.5172,0,2.4891,2.4929,2.4928,2.4958,2.4972,2.4962,2.4995,2.5008,2.5034,2.5045,2.5032,2.5087,2.5099,2.5147,2.5162,2.5172,2.5183,2.5165,2.5232,2.5238,2.5244,2.5266,2.5275,2.5174,2.5174,2.5174,2.5173,0,2.4956,2.4982,2.5005,2.5031,2.5049,2.5079,2.5085,2.5103,2.5101,2.5108,2.5148,2.5163,2.519,2.5202,2.5199,2.5251,2.5244,2.5231,2.5208,2.5254,2.5275,2.5284,2.5177,2.5176,2.5175,2.5175,0,0,2.5015,2.5042,2.5051,2.5064,2.5086,2.5108,2.514,2.5167,2.5184,2.5203,2.5232,2.5269,2.5259,2.5274,2.5274,2.5299,2.5348,2.5284,2.5284,2.5297,2.5409,2.542,2.5429,2.5343,2.5345,2.5346,2.5409,0,2.5066,2.5121,2.5123,2.5174,2.5201,2.5194,2.5222,2.524,2.5248,2.5273,2.5282,2.531,2.5292,2.5302,2.5326,2.5337,2.5371,2.5332,2.5372,2.5373,2.5368,2.544,2.545,2.5508,2.5417,2.5418,2.5419,0,2.5132,2.5154,2.5208,2.523,2.5242,2.5267,2.5294,2.5317,2.5339,2.5343,2.5362,2.536,2.5395,2.5371,2.5421,2.5395,2.5412,2.542,2.5423,2.5427,2.5399,2.5448,2.5526,2.5536,2.5431,2.543,2.543,0,2.5173,2.5216,2.5255,2.5267,2.5292,2.5311,2.5323,2.5343,2.536,2.5385,2.5397,2.5425,2.5441,2.5464,2.547,2.5452,2.5522,2.5497,2.5529,2.5529,2.5544,2.5543,2.5628,2.5552,2.5552,2.5552,2.5552,0,2.523,2.5264,2.5275,2.5299,2.5338,2.5341,2.538,2.5391,2.5409,2.5437,2.5433,2.5459,2.5465,2.5494,2.5499,2.5542,2.5548,2.5555,2.5556,2.5556,2.5555,2.5567,2.5564,2.5554,2.5554,2.5553,2.5553,0,2.5282,2.529,2.5332,2.5354,2.5361,2.5389,2.5408,2.5433,2.5441,2.5477,2.5486,2.5499,2.5533,2.5542,2.5581,2.5585,2.5637,2.5633,2.563,2.563,2.5662,2.5659,2.5758,2.5772,2.5686,2.5687,2.5687,0,2.5318,2.5345,2.537,2.5389,2.5401,2.5431,2.5449,2.5455,2.5475,2.5503,2.5525,2.5558,2.5585,2.564,2.5654,2.5686,2.5685,2.5717,2.5689,2.569,2.5688,2.5687,2.5691,2.5723,2.5723,2.5724,2.5725,0,2.5383,2.5387,2.5414,2.5443,2.5466,2.5489,2.5512,2.5527,2.5536,2.556,2.5594,2.5615,2.5657,2.5692,2.5724,2.5738,2.5735,2.5734,2.5743,2.5744,2.5742,2.5746,2.5646,2.5731,2.5731,2.573,2.573,2.573,2.543,2.5455,2.5477,2.5509,2.5526,2.5548,2.5574,2.5586,2.5615,2.565,2.5651,2.569,2.5715,2.5758,2.5775,2.5806,2.5797,2.5809,2.5813,2.5817,2.5821,2.5736,2.5812,2.5812,2.5812,2.5811,2.5811,0,2.5497,2.5512,2.5541,2.5573,2.5599,2.5592,2.5618,2.564,2.5674,2.5697,2.5725,2.5767,2.5801,2.5819,2.5854,2.5876,2.5875,2.5885,2.5884,2.5888,2.5826,2.5815,2.5885,2.5885,2.5885,2.5885,2.5885,2.5885,2.5535,2.5577,2.5584,2.5636,2.5651,2.5689,2.5705,2.5726,2.5745,2.5792,2.582,2.5832,2.5855,2.5892,2.5924,2.5929,2.5943,2.5954,2.5958,2.5899,2.5892,2.5885,2.5875,2.5956,2.5957,2.6018,2.6019,2.6019]},{"header":{"parameterUnit":"m.s-1","parameterCategory":1,"la1":30.2991,"la2":30.254,"lo1":-89.0895,"lo2":-89.0444,"dy":0.0017,"dx":0.0017,"nx":28,"ny":28,"refTime":"2025-03-09T21:00:00:Z","depth":0,"parameterNumber":3,"parameterNumberName":"V-component_of_WINDS"},"data":[0,0,0,0,0,0,0,0,0,0,0,0,0,0,0,0,0,0,0,0,0,0,0,0,0,0,0,0,0,0,0,0,0,0,0,0,0,0,0,0,0,0,0,0,0,0,0,0,0,0,0,0,0,0,0,0,0,0,-4.4057,-4.4057,0,-4.411,-4.4111,-4.4112,-4.4168,-4.4169,-4.4169,-4.417,-4.4218,-4.4219,-4.4219,0,0,0,0,0,0,0,0,0,0,0,0,0,-4.4001,-4.4001,-4.4057,-4.4058,-4.4058,-4.411,-4.4111,-4.4112,-4.4168,-4.4169,-4.417,-4.4171,-4.4218,-4.4219,-4.4219,0,0,0,0,0,0,0,0,0,0,0,0,0,-4.4036,-4.4002,-4.4057,-4.4093,-4.4096,-4.411,-4.4111,-4.4112,-4.4168,-4.4169,-4.417,-4.4171,-4.4218,-4.4219,-4.4219,-4.42,0,0,-4.4222,-4.4222,0,0,0,0,0,0,0,0,-4.4034,-4.4038,-4.4087,-4.409,-4.4094,-4.4134,-4.4109,-4.4141,-4.4167,-4.414,-4.417,-4.4172,-4.4189,-4.4192,-4.4199,-4.4202,-4.4204,-4.4222,-4.4222,-4.4223,-4.4223,0,0,0,0,0,0,0,-4.4032,-4.4036,-4.4078,-4.4087,-4.4092,-4.4105,-4.4112,-4.4115,-4.4157,-4.4143,-4.4147,-4.4153,-4.4191,-4.4198,-4.4201,-4.4205,-4.4222,-4.4223,-4.4223,-4.4223,-4.4199,-4.4198,0,0,0,0,0,0,-4.4024,-4.4034,-4.4076,-4.4079,-4.4067,-4.4105,-4.4112,-4.412,-4.4157,-4.4164,-4.4152,-4.4155,-4.4196,-4.42,-4.4203,-4.4185,-4.4223,-4.4224,-4.4224,-4.42,-4.4199,-4.4198,0,0,0,0,0,0,-4.4023,-4.4028,-4.4074,-4.4058,-4.4065,-4.4105,-4.4113,-4.412,-4.4128,-4.4164,-4.4171,-4.4152,-4.4197,-4.4201,-4.4202,-4.4187,-4.4224,-4.4225,-4.4202,-4.42,-4.4198,-4.4148,0,0,0,0,0,0,-4.4021,-4.4027,-4.402,-4.4058,-4.4066,-4.4073,-4.4112,-4.412,-4.413,-4.4135,-4.4166,-4.4172,-4.4199,-4.42,-4.4202,-4.4189,-4.4225,-4.4203,-4.4201,-4.4199,-4.4151,-4.4144,-4.4139,0,0,0,0,0,-4.4019,-4.4001,-4.4019,-4.4024,-4.4058,-4.4072,-4.4076,-4.4109,-4.4128,-4.4122,-4.4146,-4.4171,-4.4189,-4.42,-4.4203,-4.4189,-4.4204,-4.4201,-4.4199,-4.4153,-4.4146,-4.4139,0,0,0,0,0,0,-4.3958,-4.4007,-4.4027,-4.4022,-4.4043,-4.4081,-4.4074,-4.4099,-4.4113,-4.4117,-4.4156,-4.4162,-4.4159,-4.4174,-4.4185,-4.4175,-4.42,-4.4198,-4.4165,-4.4158,-4.4152,-4.4148,-4.4226,0,0,0,0,0,-4.3944,-4.3952,-4.3994,-4.3985,-4.3995,-4.4033,-4.404,-4.4064,-4.4086,-4.4094,-4.4118,-4.4138,-4.4148,-4.4154,-4.4165,-4.4154,-4.4162,-4.4146,-4.4141,-4.4136,-4.4133,-4.4132,-4.4126,-4.4189,-4.419,-4.419,0,0,-4.3914,-4.3943,-4.3945,-4.3974,-4.3993,-4.4,-4.4039,-4.4044,-4.405,-4.4094,-4.4098,-4.4116,-4.414,-4.4136,-4.4135,-4.4148,-4.4118,-4.4132,-4.4128,-4.4128,-4.4128,-4.4122,-4.4117,-4.4188,-4.4188,-4.4188,0,0,-4.3865,-4.3887,-4.3884,-4.3903,-4.3933,-4.396,-4.3959,-4.3995,-4.401,-4.4014,-4.4049,-4.4056,-4.4072,-4.4089,-4.41,-4.4063,-4.4087,-4.4065,-4.4034,-4.4032,-4.4027,-4.4023,-4.4011,-4.4006,-4.4063,-4.4063,-4.4062,0,-4.3824,-4.3838,-4.3878,-4.3883,-4.3895,-4.394,-4.3937,-4.3953,-4.3984,-4.3991,-4.4007,-4.4032,-4.405,-4.4052,-4.4044,-4.405,-4.4051,-4.4061,-4.4025,-4.4021,-4.4018,-4.4007,-4.4002,-4.406,-4.406,-4.406,-4.4061,0,-4.3788,-4.3797,-4.3791,-4.3824,-4.3836,-4.3836,-4.3875,-4.3882,-4.3907,-4.3931,-4.3937,-4.3962,-4.3981,-4.3983,-4.4005,-4.3989,-4.3997,-4.4018,-4.4045,-4.4008,-4.3999,-4.3995,-4.4056,-4.4057,-4.4058,-4.4058,0,0,-4.3697,-4.3757,-4.3754,-4.3771,-4.381,-4.3817,-4.3821,-4.3843,-4.3849,-4.387,-4.3874,-4.3889,-4.3911,-4.3923,-4.3948,-4.3946,-4.3918,-4.3968,-4.397,-4.3959,-4.3905,-4.3889,-4.3883,-4.3935,-4.3935,-4.3934,-4.3903,0,-4.3656,-4.3667,-4.3705,-4.3704,-4.3715,-4.376,-4.3763,-4.3787,-4.3811,-4.3823,-4.3849,-4.386,-4.3887,-4.3895,-4.3895,-4.3922,-4.3908,-4.3924,-4.394,-4.394,-4.3932,-4.3878,-4.386,-4.383,-4.39,-4.3899,-4.3899,0,-4.3607,-4.363,-4.3631,-4.3674,-4.368,-4.3682,-4.3708,-4.3718,-4.3747,-4.3765,-4.3782,-4.3811,-4.3818,-4.3843,-4.3854,-4.3864,-4.3873,-4.3887,-4.3887,-4.3889,-4.3917,-4.388,-4.382,-4.3816,-4.3893,-4.3893,-4.3894,0,-4.3543,-4.3574,-4.358,-4.3593,-4.3642,-4.3644,-4.3664,-4.3694,-4.3706,-4.3728,-4.3737,-4.3757,-4.3769,-4.3784,-4.3819,-4.3834,-4.3826,-4.3853,-4.3841,-4.384,-4.3836,-4.3836,-4.3778,-4.3841,-4.3841,-4.3841,-4.3841,0,-4.3492,-4.3492,-4.3553,-4.3556,-4.3558,-4.3602,-4.3602,-4.3626,-4.3654,-4.3663,-4.3702,-4.3709,-4.3755,-4.3767,-4.3794,-4.38,-4.3804,-4.3819,-4.3826,-4.3815,-4.3814,-4.3821,-4.3824,-4.384,-4.384,-4.384,-4.3841,0,-4.342,-4.3461,-4.3471,-4.3519,-4.3531,-4.353,-4.3571,-4.3576,-4.3605,-4.3616,-4.3621,-4.3665,-4.3682,-4.3719,-4.3745,-4.3763,-4.3763,-4.3775,-4.3754,-4.3758,-4.3744,-4.3745,-4.3689,-4.3685,-4.375,-4.3749,-4.3749,0,-4.3385,-4.3387,-4.3437,-4.3447,-4.3467,-4.3483,-4.3497,-4.3541,-4.3554,-4.359,-4.3591,-4.3613,-4.3632,-4.3658,-4.3691,-4.3712,-4.3726,-4.3705,-4.3729,-4.372,-4.3727,-4.3727,-4.3728,-4.3699,-4.3698,-4.3698,-4.3697,0,-4.3319,-4.334,-4.336,-4.3389,-4.3405,-4.3429,-4.3454,-4.346,-4.351,-4.3523,-4.3543,-4.3559,-4.3589,-4.361,-4.3637,-4.3657,-4.3685,-4.369,-4.3688,-4.3677,-4.3666,-4.3673,-4.374,-4.369,-4.3691,-4.3691,-4.3692,-4.3692,-4.3265,-4.327,-4.3307,-4.3329,-4.3354,-4.3378,-4.3387,-4.3419,-4.3438,-4.3467,-4.3492,-4.3511,-4.3543,-4.3584,-4.3602,-4.3617,-4.3631,-4.3628,-4.3627,-4.3626,-4.3623,-4.3664,-4.3622,-4.3622,-4.3623,-4.3623,-4.3623,0,-4.3202,-4.323,-4.325,-4.3287,-4.3305,-4.3334,-4.3365,-4.3377,-4.3394,-4.3423,-4.3444,-4.3468,-4.349,-4.3527,-4.3553,-4.3558,-4.3572,-4.3563,-4.3563,-4.3567,-4.3608,-4.3608,-4.3551,-4.3551,-4.3551,-4.3551,-4.3551,-4.3551,-4.3171,-4.3182,-4.3209,-4.3234,-4.3261,-4.3282,-4.3298,-4.3321,-4.3345,-4.3372,-4.3392,-4.3417,-4.345,-4.3479,-4.3501,-4.3511,-4.3519,-4.3506,-4.352,-4.3557,-4.3564,-4.357,-4.357,-4.3507,-4.3507,-4.3478,-4.3478,-4.3478]}]]